Terminal Aerodrome Forecast
Issued by NWS Charleston, WV

Current Version | Previous Version | Graphics & Text | Print | Product List | Glossary On
Versions: 1 2 3 4 5 6 7 8 9 10 11 12 13 14 15 16 17 18 19 20 21 22
000
FTUS41 KRLX 011010 AAB
TAFCRW
TAF AMD
KCRW 011010Z 0110/0206 00000KT P6SM SCT250
     FM011200 VRB03KT P6SM FEW060
     FM011700 29007KT P6SM FEW060
     FM012300 VRB03KT P6SM FEW060=

USA.gov is the U.S. government's official web portal to all federal, state and local government web resources and services.